Погода в Тауннгу

Мьянма     18°56′20″N   96°26′17″E
темп.,
°C
ветер,
м/с
пор.,
м/с
влажн.,
%
обл.,
%
осадки,
мм/ч
давл.,
гПа
погр.,
м
19 апреля, пн
пн1900:30+23в23850 1.1 100975
03:30+22в12870 1.1 100938
06:30+23в23875 2.0 101099
09:30+30ю33580 0.0 1011843
12:30+35ююз22360 0.0 10081905
15:30+37в12260 0.0 10041914
18:30+31юв223728 0.0 100433
21:30+26ююв12530 0.0 100732
20 апреля, вт
вт2000:30+23в24810 0.3 1008102
03:30+24в22790 0.0 100749
06:30+23вюв23810 0.3 1009112
09:30+31ююв34500 0.0 10101025
12:30+36ю22330 0.0 10072129
15:30+38юз12250 0.0 10042333
18:30+31ююз224084 0.0 100426
21:30+28юв39574 0.0 1008404
21 апреля, ср
ср2100:30+26вюв24691 0.0 1008206
03:30+25в23720 0.1 100884
06:30+24в23831 1.1 101096
09:30+32ю34520 0.0 1011991
12:30+37ю22340 0.0 10082110
15:30+38ю12270 0.0 10042317
18:30+30ююв24495 0.1 100566
21:30+27юв25621 0.1 1008115
22 апреля, чт
чт2200:30+26вюв23640 0.1 100881
03:30+26вюв23691 0.0 100778
06:30+26юв25700 0.0 1009256
09:30+33ю45490 0.0 10101100
12:30+38ю33342 0.0 10072282
15:30+40вюв23250 0.0 10032833
18:30+33юв11411 0.0 100412
21:30+29юв38594 0.1 1007422
23 апреля, пт
пт2300:30+26юв26750 0.3 1007218
03:30+25юв12770 0.0 100780
06:30+26юв24740 0.0 1008234
09:30+33ю45500 0.0 10091098
12:30+38ю34310 0.0 10061958
15:30+40юв23250 0.0 10022996
18:30+34юв223464 0.0 100227
21:30+30ююв512570 0.0 1006641